FW5866 Weather Reports


Display with metric or nautical units.
time (UTC)temp
F
wind
direction
speed
MPH
gust
MPH
rain 1hr
in
rain 24hr
in
rain mn
in
humidity
%
barometer
mb
20260904224558 89 144 0.0 4.0 0.00 0.00 0.00 77 1013.6
20260904223052 88 0 0.0 2.0 0.00 0.00 0.00 77 1013.5
20260904221604 89 0 0.0 2.0 0.00 0.00 0.00 77 1013.6
20260904214557 90 320 0.0 3.0 0.00 0.00 0.00 75 1013.5
20260904213101 90 0 0.0 2.0 0.00 0.00 0.00 79 1013.7
20260904211608 90 0 0.0 2.0 0.00 0.00 0.00 79 1014.0
20260904210056 90 346 0.0 4.0 0.00 0.00 0.00 77 1014.0
20260904204558 90 59 0.0 4.0 0.00 0.11 0.00 79 1014.2
20260904203114 90 0 0.0 4.0 0.00 0.11 0.00 82 1014.2
20260904201600 89 0 0.0 3.0 0.00 0.11 0.00 83 1014.5
20260904200110 88 178 0.0 2.0 0.00 0.11 0.00 84 1014.6
20260904194558 88 0 0.0 3.0 0.00 0.20 0.00 85 1014.8
20260904193101 87 0 0.0 2.0 0.00 0.20 0.00 85 1015.2
20260904191600 87 136 0.0 4.0 0.00 0.20 0.00 84 1015.5
20260904190058 88 0 0.0 4.0 0.00 0.20 0.00 85 1015.7
20260904184554 88 0 0.0 2.0 0.00 0.20 0.00 85 1015.7
20260904183050 88 0 0.0 1.0 0.00 0.20 0.00 86 1015.7
20260904181557 87 32 0.0 3.0 0.00 0.20 0.00 86 1015.9
20260904180106 87 49 0.0 3.0 0.00 0.20 0.00 86 1016.1
20260904174606 87 51 0.0 4.0 0.00 0.20 0.00 86 1016.1
20260904173102 86 345 0.0 3.0 0.00 0.20 0.00 88 1016.3
20260904171603 86 72 1.0 4.0 0.00 0.20 0.00 88 1016.3
20260904170059 86 60 0.0 4.0 0.00 0.20 0.00 89 1016.8
20260904164556 84 69 0.0 3.0 0.00 0.20 0.00 91 1016.9
20260904163051 84 0 0.0 3.0 0.00 0.20 0.00 91 1017.0
20260904161617 83 0 0.0 3.0 0.00 0.20 0.00 92 1017.0
20260904160059 83 37 0.0 3.0 0.00 0.20 0.00 92 1017.1
20260904154555 82 0 1.0 3.0 0.00 0.20 0.00 93 1017.0
20260904153133 81 68 0.0 5.0 0.00 0.20 0.00 94 1017.0
20260904151557 81 0 0.0 3.0 0.00 0.20 0.00 94 1016.6
20260904150053 80 0 0.0 3.0 0.00 0.20 0.00 95 1016.7
20260904144603 80 23 0.0 2.0 0.00 0.20 0.00 95 1016.6
20260904143100 79 0 0.0 1.0 0.00 0.20 0.00 95 1016.5
20260904141557 78 309 0.0 3.0 0.00 0.20 0.00 95 1016.4
20260904140055 77 0 0.0 0.0 0.00 0.20 0.00 95 1016.4
20260904134553 77 0 0.0 0.0 0.00 0.20 0.00 95 1016.5
20260904133100 76 0 0.0 0.0 0.00 0.20 0.00 95 1016.4
20260904131619 75 0 0.0 0.0 0.00 0.20 0.00 95 1016.4
20260904130055 74 0 0.0 0.0 0.00 0.20 0.00 95 1016.2
20260904124555 74 0 0.0 0.0 0.00 0.20 0.00 94 1016.0
20260904123100 74 0 0.0 0.0 0.00 0.20 0.00 94 1016.0
20260904121600 74 0 0.0 0.0 0.00 0.20 0.00 95 1015.7
20260904114557 74 0 0.0 0.0 0.00 0.20 0.00 94 1015.8
20260904113057 74 0 0.0 0.0 0.00 0.20 0.00 94 1015.6
20260904111606 74 0 0.0 0.0 0.00 0.20 0.00 94 1015.4
20260904110104 74 0 0.0 0.0 0.00 0.20 0.00 93 1015.4
20260904104604 74 0 0.0 0.0 0.00 0.20 0.00 94 1015.2
20260904103105 74 0 0.0 0.0 0.00 0.20 0.00 93 1015.1
20260904101600 74 0 0.0 0.0 0.00 0.20 0.00 93 1015.1
20260904100057 74 0 0.0 0.0 0.00 0.20 0.00 93 1015.2
20260904094557 75 0 0.0 0.0 0.00 0.20 0.00 94 1015.0
20260904093053 75 0 0.0 0.0 0.00 0.20 0.00 93 1015.0
20260904091611 75 0 0.0 0.0 0.00 0.20 0.00 94 1015.0
20260904090057 75 0 0.0 0.0 0.00 0.20 0.00 93 1014.9
20260904084555 75 0 0.0 0.0 0.00 0.20 0.00 93 1015.0
20260904083111 74 0 0.0 0.0 0.00 0.20 0.00 93 1014.8
20260904081559 75 0 0.0 0.0 0.00 0.20 0.00 93 1014.8
20260904080105 75 0 0.0 0.0 0.00 0.20 0.00 93 1014.7
20260904074611 75 0 0.0 0.0 0.00 0.20 0.00 93 1015.0
20260904073102 75 0 0.0 0.0 0.00 0.20 0.00 93 1015.0
20260904071559 75 0 0.0 0.0 0.00 0.20 0.00 93 1015.2
20260904070126 75 0 0.0 0.0 0.00 0.20 0.00 93 1015.3
20260904064553 75 0 0.0 0.0 0.00 0.20 0.00 93 1015.3
20260904063051 75 0 0.0 0.0 0.00 0.20 0.00 93 1015.4
20260904061547 75 0 0.0 0.0 0.00 0.20 0.00 93 1015.3
20260904060100 76 0 0.0 0.0 0.00 0.20 0.00 92 1015.2
20260904054554 76 0 0.0 0.0 0.00 0.20 0.00 92 1015.1
20260904053101 76 0 0.0 0.0 0.00 0.20 0.00 93 1015.1
20260904051607 76 0 0.0 0.0 0.00 0.20 0.00 93 1014.9
20260904050057 76 0 0.0 0.0 0.00 0.20 0.00 92 1015.0
20260904044605 76 0 0.0 0.0 0.00 0.20 0.20 92 1015.0
20260904043054 76 0 0.0 0.0 0.00 0.20 0.20 93 1015.1
20260904041607 76 0 0.0 0.0 0.00 0.20 0.20 92 1015.1
20260904040110 76 0 0.0 0.0 0.00 0.20 0.20 92 1015.0
20260904034613 77 0 0.0 0.0 0.00 0.20 0.20 92 1015.1
20260904033104 77 0 0.0 0.0 0.00 0.20 0.20 92 1014.9
20260904031558 77 0 0.0 0.0 0.00 0.20 0.20 91 1014.8
20260904030056 77 0 0.0 0.0 0.00 0.20 0.20 91 1014.9
20260904024549 77 0 0.0 0.0 0.00 0.20 0.20 91 1015.0
20260904023100 78 0 0.0 0.0 0.00 0.20 0.20 91 1014.9
20260904021606 78 0 0.0 0.0 0.00 0.20 0.20 91 1015.2
20260904020057 78 0 0.0 0.0 0.00 0.20 0.20 91 1015.2
20260904014633 78 0 0.0 0.0 0.00 0.20 0.20 92 1015.2
20260904013050 79 0 0.0 0.0 0.00 0.20 0.20 91 1015.1
20260904011619 79 0 0.0 0.0 0.00 0.20 0.20 91 1015.0
20260904004556 79 0 0.0 0.0 0.00 0.20 0.20 91 1014.7
20260904003103 80 0 0.0 0.0 0.00 0.20 0.20 90 1014.6
20260904001559 80 0 0.0 0.0 0.00 0.20 0.20 91 1014.6
20260904000058 80 0 0.0 0.0 0.00 0.20 0.20 90 1014.4
20260903234554 80 0 0.0 0.0 0.00 0.20 0.20 90 1014.4
20260903233113 81 0 0.0 0.0 0.00 0.20 0.20 90 1014.5
20260903231557 81 0 0.0 0.0 0.00 0.20 0.20 91 1014.4
20260903230057 81 0 0.0 3.0 0.00 0.20 0.20 91 1014.1